Tracking 30995 objects as of 5-Jul-2025
HD Live streaming from Space Station
objects crossing your sky now

STARLINK-1364

Track STARLINK-1364 now!
10-day predictions
STARLINK-1364 is classified as:


NORAD ID: 45589
Int'l Code: 2020-025BL
Perigee: 553.3 km
Apogee: 555.3 km
Inclination: 53.1 °
Period: 95.6 minutes
Semi major axis: 6925 km
RCS: Unknown
Launch date: April 22, 2020
Source: United States (US)
Launch site: AIR FORCE EASTERN TEST RANGE (AFETR)
Your satellite tracking list
Your tracking list is empty




NASA's NSSDC Master Catalog

Two Line Element Set (TLE):
1 45589U 20025BL  25186.14896686  .00000768  00000-0  70442-4 0  9992
2 45589  53.0553 107.8696 0001447  90.1699 269.9455 15.06403493287597
Source of the keplerian elements: AFSPC